This is the latest recevied weather packets stored in our database for station/object W7BL. If no packets are shown the sender has not sent any weather packets the latest 10 day(s).
| Time | Temp. | Humidity | Pressure | Rain* | Wind** | Luminosity | Snow |
|---|---|---|---|---|---|---|---|
| 1778014098 | 22.78° C | 33% | - | 0 mm | - | - | - |
| 1778013797 | 23.89° C | 33% | - | 0 mm | - | - | - |
| 1778013494 | 23.33° C | 32% | - | 0 mm | - | - | - |
| 1778013190 | 23.33° C | 32% | - | 0 mm | - | - | - |
| 1778012886 | 23.33° C | 37% | - | 0 mm | - | - | - |
| 1778012583 | 23.33° C | 35% | - | 0 mm | - | - | - |
| 1778012279 | 23.89° C | 35% | - | 0 mm | - | - | - |
| 1778011977 | 22.78° C | 38% | - | 0 mm | - | - | - |
| 1778011675 | 22.78° C | 39% | - | 0 mm | - | - | - |
| 1778011372 | 22.78° C | 40% | - | 0 mm | - | - | - |
| 1778011067 | 22.78° C | 41% | - | 0 mm | - | - | - |
| 1778010765 | 22.78° C | 41% | - | 0 mm | - | - | - |
| 1778010462 | 22.22° C | 42% | - | 0 mm | - | - | - |
| 1778010158 | 22.22° C | 42% | - | 0 mm | - | - | - |
| 1778009854 | 21.67° C | 43% | - | 0 mm | - | - | - |
| 1778009552 | 22.22° C | 42% | - | 0 mm | - | - | - |
| 1778009250 | 22.22° C | 42% | - | 0 mm | - | - | - |
| 1778008948 | 21.67° C | 45% | - | 0 mm | - | - | - |
| 1778008645 | 21.67° C | 44% | - | 0 mm | - | - | - |
| 1778008344 | 21.11° C | 46% | - | 0 mm | - | - | - |
| 1778008040 | 21.11° C | 48% | - | 0 mm | - | - | - |
| 1778007739 | 21.11° C | 47% | - | 0 mm | - | - | - |
| 1778007436 | 21.11° C | 46% | - | 0 mm | - | - | - |
| 1778007133 | 21.11° C | 46% | - | 0 mm | - | - | - |
| 1778006829 | 21.67° C | 44% | - | 0 mm | - | - | - |
* Rain latest hour (hover to see other rain measurements)
** Current wind speed in m/s (hover to see current wind gust speed)